Theta_e
319 320 320 321 323 323 324 324 324 323 323 323 323 324 324 324 324 323 323 323 324 324 324 325 325 325 324 324 323 318 311 309 309 309 310 312 314 315 313 313 313 312 311 313 313 312 311 311 312 314 316 316 315 317 317 315 315 317 321 318 316 317 317 317 316 314 313 315 312 309 311 316 315 309 309 309 310 313 312 313 313 315 318 321 321 320 323 328
319 320 319 320 321 322 323 323 323 323 323 323 323 323 323 324 323 323 323 322 323 322 322 322 323 324 322 323 320 311 307 309 308 309 314 317 314 315 315 313 313 311 311 313 313 312 311 311 312 314 316 316 314 316 317 315 315 318 321 318 317 319 316 314 315 313 313 315 312 310 311 314 314 311 310 312 313 313 313 314 313 314 317 321 322 321 323 327
319 320 319 318 318 320 322 323 323 323 323 322 322 323 322 323 323 323 323 322 322 319 318 318 320 321 317 320 317 308 308 310 308 311 318 319 316 316 314 312 311 310 310 313 313 311 311 311 313 314 315 315 314 315 317 316 316 317 318 318 319 320 315 311 313 312 310 311 312 310 309 310 312 311 311 313 314 312 313 315 313 315 316 319 323 322 324 328
320 319 318 317 317 318 319 321 323 322 322 322 322 322 322 322 322 323 322 321 321 317 316 314 314 315 313 318 317 310 310 312 312 314 318 319 317 315 313 310 309 310 311 312 313 311 310 311 313 314 315 315 313 314 315 315 315 316 317 318 319 317 315 312 310 310 308 309 312 310 309 310 310 310 311 313 314 313 314 315 313 315 315 319 325 323 326 330
319 319 317 316 316 317 318 321 322 321 322 322 322 322 321 321 321 322 321 321 319 316 314 312 312 312 314 320 317 311 313 317 317 316 317 316 314 313 312 309 308 311 313 313 313 310 310 312 313 314 315 315 314 315 315 312 313 316 314 313 314 314 315 311 308 308 307 308 310 310 311 311 310 309 312 313 314 314 314 313 314 314 313 321 325 325 327 330
319 318 316 316 317 318 319 320 321 321 321 321 321 321 321 321 320 320 320 319 317 315 312 311 312 313 318 320 314 311 316 319 315 313 315 314 312 310 309 309 308 312 314 314 311 309 310 312 314 315 314 314 315 314 313 310 311 316 313 309 309 311 312 309 307 308 306 309 310 311 311 310 310 311 310 312 314 313 310 309 311 310 315 323 326 326 328 330
318 317 316 317 319 320 320 320 320 320 320 320 320 320 320 320 319 319 319 317 315 313 312 312 312 314 321 318 311 311 316 318 313 312 314 313 312 309 310 311 311 314 314 312 309 310 311 312 313 314 314 313 313 313 312 310 310 315 314 310 309 309 310 307 307 307 306 309 310 309 310 310 312 312 308 310 313 311 306 308 310 312 318 324 325 326 329 330
318 317 317 318 320 320 320 320 319 319 319 319 320 320 320 319 319 318 318 317 314 313 315 313 311 318 322 314 310 312 314 316 314 313 315 314 313 311 312 313 314 314 313 311 310 310 311 312 313 312 313 313 312 312 311 311 312 314 313 310 308 308 307 305 305 305 305 308 307 307 310 310 310 309 308 310 313 310 307 311 316 318 320 324 324 326 329 331
317 316 317 317 318 319 319 319 318 319 318 319 320 319 319 318 317 317 317 316 313 312 316 314 313 317 316 310 311 312 312 315 313 313 314 314 313 312 314 314 314 313 312 311 310 310 311 312 313 311 312 311 310 312 311 313 314 313 312 309 309 308 307 306 306 306 306 307 306 309 311 309 307 306 310 312 310 308 307 313 318 320 321 323 324 326 329 330
317 316 316 316 317 318 319 319 318 318 318 318 319 318 318 317 316 317 316 315 313 312 314 314 313 312 311 310 311 311 313 314 312 312 313 314 314 313 314 313 313 313 312 311 310 310 311 312 312 310 311 310 310 311 310 312 312 309 309 309 309 309 307 308 308 307 307 307 307 311 311 309 307 308 312 312 307 306 308 314 317 319 321 323 324 325 328 329
316 315 315 316 317 318 318 318 318 317 318 318 318 317 317 316 315 316 315 315 313 312 311 311 310 310 312 311 309 310 315 315 313 312 312 313 314 313 313 313 313 313 312 311 310 310 311 311 310 309 311 311 310 310 309 309 310 309 310 311 309 309 309 309 309 308 309 309 307 310 311 309 308 309 313 311 305 305 309 314 316 317 318 321 324 324 326 327
315 316 316 317 318 318 317 317 317 318 318 318 317 316 315 315 315 315 315 314 312 311 310 310 310 311 313 310 307 310 313 315 315 313 313 313 313 313 313 313 313 313 313 311 311 311 310 310 310 310 311 311 311 311 309 307 308 309 311 312 310 310 312 310 310 308 310 311 308 310 311 311 312 312 312 307 304 306 309 312 315 315 316 318 321 322 325 327
316 316 317 317 317 317 317 316 317 318 318 317 316 315 314 314 314 314 314 313 311 310 310 311 312 313 312 309 308 309 311 315 315 314 313 312 313 313 312 313 313 313 312 312 312 311 311 310 310 311 310 311 311 310 309 307 308 310 310 312 312 311 312 310 309 309 310 310 307 309 310 312 314 313 311 306 304 307 309 312 313 315 315 315 317 319 322 325
316 317 318 317 315 315 316 316 317 318 317 316 315 314 314 313 313 314 314 312 310 310 310 311 312 312 310 308 309 309 311 315 314 314 313 311 313 313 313 314 313 312 313 313 313 311 311 310 310 311 310 310 310 308 310 309 309 311 310 312 313 312 311 310 309 310 312 310 307 310 310 312 314 311 309 306 305 308 311 312 312 312 313 312 314 316 318 322
316 317 317 315 314 314 315 316 317 317 316 315 315 314 313 313 313 314 313 312 310 310 311 311 313 311 308 308 309 309 312 313 313 314 312 312 313 313 313 314 313 313 314 314 313 311 310 310 311 312 309 308 310 310 312 311 310 311 310 312 313 311 311 311 309 309 312 310 308 310 310 312 314 310 307 306 307 308 310 312 311 310 310 310 311 312 314 317
316 317 315 314 314 314 316 316 316 316 315 315 314 314 312 313 313 313 314 313 312 311 311 313 313 310 307 308 310 311 313 313 313 313 313 312 313 314 313 313 313 313 313 312 311 310 310 311 311 310 309 308 311 313 313 312 311 311 311 313 313 312 311 311 310 308 310 311 310 310 311 312 314 312 307 306 307 309 310 312 312 311 311 310 311 310 311 312
316 316 315 314 314 315 316 315 315 314 314 314 314 313 312 312 313 313 314 313 313 312 312 314 313 309 306 308 310 312 313 313 312 312 313 312 313 313 312 312 312 311 311 311 310 311 311 311 310 310 311 310 311 314 313 311 312 312 312 313 313 312 309 310 311 309 308 311 312 311 311 312 313 312 309 307 306 308 311 312 312 312 312 311 311 311 310 311
316 316 314 314 314 315 314 313 314 313 313 313 313 312 311 313 313 313 315 314 312 311 312 313 310 308 307 307 310 312 313 313 312 313 313 312 312 312 312 311 310 311 312 311 311 312 312 311 311 312 312 311 311 313 312 312 312 312 311 311 312 311 310 310 311 310 309 312 313 312 312 312 313 312 312 310 307 308 311 312 312 311 312 311 312 311 311 311
316 315 314 314 315 315 313 312 313 313 312 312 312 311 312 313 313 314 314 312 310 309 310 310 309 308 308 308 311 312 312 312 312 313 312 312 312 312 312 311 312 313 312 313 313 312 313 313 312 313 313 312 312 312 312 314 314 313 314 313 313 311 310 310 310 308 309 312 312 313 312 313 313 313 313 312 309 309 310 311 311 311 311 312 312 311 312 312
316 314 314 314 315 314 312 313 313 312 312 311 312 312 312 313 312 313 312 309 307 307 308 310 308 309 308 308 312 312 312 312 312 312 312 312 311 312 311 311 315 315 312 315 315 311 313 314 314 314 314 313 313 313 313 313 313 313 314 314 315 313 310 310 310 308 308 311 313 313 313 313 313 313 313 313 311 311 311 311 312 313 314 314 314 314 314 313
315 314 314 314 315 314 312 312 312 312 311 311 312 311 311 311 310 312 311 308 307 306 308 309 308 310 309 310 312 311 312 312 312 313 312 311 311 313 312 311 314 314 313 316 314 311 312 314 315 315 314 313 312 312 312 311 311 312 312 313 314 314 312 310 310 309 307 310 313 313 313 313 313 313 313 313 313 312 313 314 314 315 315 315 315 315 315 315
315 314 315 314 314 313 312 312 311 311 310 311 313 310 308 309 309 310 310 308 307 306 307 308 308 311 311 311 311 311 313 313 312 313 312 311 312 313 312 312 313 313 314 315 313 313 314 315 316 313 311 311 310 310 312 313 312 313 313 312 312 313 312 309 310 310 308 310 314 313 313 314 315 315 314 314 314 314 315 315 315 315 315 314 315 315 315 315
315 314 314 314 314 313 312 312 312 311 310 312 312 309 308 308 308 309 309 309 308 306 308 308 309 312 312 312 312 311 312 312 313 313 312 311 312 312 312 312 313 314 313 313 314 315 315 314 312 309 308 309 310 310 312 313 312 314 314 311 312 314 313 311 311 310 307 308 312 314 314 315 315 315 315 314 313 313 312 311 312 312 313 314 315 316 314 313
315 314 314 314 313 313 312 311 312 311 311 312 311 308 308 308 308 309 308 308 308 307 307 307 310 313 312 311 312 312 311 311 313 313 312 311 311 312 313 312 313 313 312 312 314 316 315 311 306 306 309 311 311 311 313 312 312 315 316 315 315 315 314 313 312 310 308 308 310 313 312 313 316 315 314 313 309 309 308 308 310 310 311 312 312 313 312 311
315 314 314 313 313 312 311 311 312 311 311 312 310 308 309 309 307 307 307 308 309 308 307 307 310 313 312 311 312 312 311 311 312 313 312 311 311 311 311 311 312 313 313 312 313 315 314 307 304 308 310 313 313 312 315 316 312 314 315 316 316 314 314 315 313 312 312 311 310 311 309 309 314 315 314 313 310 310 309 310 312 312 311 310 309 310 311 311
315 314 314 313 312 312 311 312 311 310 311 311 310 308 310 309 306 307 308 308 309 308 307 308 309 310 311 312 312 311 311 311 311 311 311 311 310 310 311 310 310 312 312 311 312 314 310 305 307 313 313 316 315 312 317 318 313 312 315 315 316 315 317 317 316 314 312 311 310 310 310 309 312 314 315 313 312 314 312 312 314 313 311 310 309 309 310 311
315 314 313 313 312 312 312 312 310 310 311 311 309 309 310 309 307 307 307 308 309 309 308 307 307 309 311 312 311 310 311 312 311 311 311 311 310 309 311 311 309 310 310 311 313 312 308 306 310 315 315 316 314 313 317 317 312 314 315 315 315 317 320 320 317 314 312 311 311 312 313 310 310 314 315 311 311 314 314 314 316 313 311 309 309 309 309 310
315 314 313 312 312 312 311 311 310 310 311 310 309 310 310 308 307 307 307 309 309 309 308 306 306 310 311 310 310 310 310 312 313 312 309 309 309 309 311 312 311 311 309 311 314 311 310 311 312 315 315 314 315 317 317 316 315 316 311 313 315 317 319 319 316 313 312 311 311 313 314 311 309 313 314 310 311 313 314 315 315 312 311 310 309 309 309 309
315 314 313 312 312 312 310 310 310 310 310 309 309 311 310 307 307 307 308 309 309 307 307 307 308 310 311 309 309 310 310 312 313 312 309 308 308 309 310 310 311 311 310 312 315 312 311 311 311 313 313 315 316 314 315 319 318 313 309 312 315 315 316 316 314 312 311 311 312 314 312 310 310 313 313 310 311 313 314 315 314 312 312 311 310 311 311 310
314 314 313 313 312 311 310 310 310 309 309 309 310 310 309 308 308 308 307 309 310 307 305 307 309 311 311 310 309 310 311 312 311 310 310 310 309 308 308 308 309 312 314 316 316 312 310 309 310 313 313 312 311 308 310 316 315 311 313 315 314 315 314 313 312 310 310 312 312 310 309 310 309 312 314 312 311 313 314 313 313 313 313 311 311 311 312 311
314 313 312 313 312 310 310 310 309 309 308 309 310 310 308 309 309 308 308 310 311 308 305 307 309 311 312 311 311 310 311 312 311 311 311 310 310 309 309 310 311 313 315 315 315 312 311 310 312 313 310 309 310 309 308 309 310 312 316 315 313 314 313 312 312 311 312 313 309 306 307 309 309 310 313 312 311 311 312 312 312 313 312 312 312 311 310 310
314 314 313 312 312 310 311 310 309 309 308 309 310 309 307 309 309 309 308 308 309 309 308 309 308 311 313 312 312 312 313 313 312 312 313 312 311 310 312 313 312 313 313 313 315 315 314 314 312 311 309 310 314 313 309 308 310 313 314 313 312 313 313 313 313 312 313 312 307 305 306 309 310 311 312 311 311 311 310 310 312 313 311 311 312 311 310 310
314 313 313 312 312 311 311 310 309 309 309 310 310 308 308 309 309 310 308 307 309 309 310 310 309 311 313 312 312 313 314 314 312 312 313 314 313 312 315 315 315 317 315 314 316 314 315 315 313 313 311 310 315 314 311 311 311 312 314 313 312 314 314 314 313 312 312 310 306 305 308 310 311 311 312 312 312 312 309 309 310 310 310 310 310 311 312 311
314 313 312 312 312 312 311 310 309 309 309 310 309 308 310 311 310 311 308 307 309 308 308 311 310 312 312 312 313 313 312 312 312 313 313 313 313 313 314 313 314 318 316 314 315 315 315 315 314 315 313 312 314 314 315 315 313 314 317 314 314 315 315 315 313 313 313 310 307 305 308 312 312 311 312 311 310 309 308 308 307 307 307 307 308 310 313 312
314 313 312 311 312 312 311 310 309 309 310 309 308 308 310 311 311 311 308 308 309 308 309 311 312 313 312 312 313 313 312 313 313 313 313 313 313 313 313 311 313 316 315 313 313 313 314 313 312 312 311 311 314 314 315 316 313 313 313 312 313 315 315 311 308 310 311 310 309 308 310 313 312 311 312 311 309 308 308 308 308 308 308 308 311 313 314 313
313 312 312 311 311 312 311 310 309 309 310 309 308 309 310 311 312 312 310 309 310 309 310 311 313 314 312 311 312 312 313 314 314 313 313 313 313 314 314 313 313 314 314 315 314 313 312 312 312 311 310 310 313 313 314 316 314 311 310 311 311 314 317 312 306 305 307 309 311 311 311 312 310 311 313 313 311 310 310 309 309 311 311 311 315 317 316 315
312 311 311 311 311 311 311 311 309 309 311 310 308 310 310 310 312 312 310 310 310 310 311 312 312 313 312 312 312 312 313 314 314 313 314 313 313 314 314 313 313 312 313 316 316 315 314 313 313 314 313 311 309 311 313 314 314 311 312 312 309 311 315 312 309 308 308 310 311 310 311 310 308 310 313 312 311 311 311 309 310 311 311 312 316 318 317 316
311 311 312 311 311 311 311 310 309 310 312 311 309 311 311 311 311 311 311 310 310 310 311 312 312 313 312 312 312 312 313 314 313 313 314 313 313 314 313 313 314 312 312 315 315 316 318 314 312 313 315 312 311 313 313 312 312 311 312 312 311 312 312 310 311 312 310 311 312 310 307 307 309 310 312 311 311 312 311 311 312 311 311 314 317 319 317 316
311 312 312 311 311 311 311 309 310 311 311 311 310 311 312 311 312 312 309 309 310 310 311 312 312 312 312 313 313 312 312 313 313 313 314 313 313 313 312 313 315 312 310 313 314 315 318 316 314 313 313 313 313 314 314 313 311 308 308 309 311 313 312 310 310 310 311 310 311 310 307 308 311 310 310 311 312 313 312 313 315 312 312 314 315 317 317 316
312 313 312 311 311 310 310 310 312 313 312 311 310 311 314 311 310 310 309 310 311 309 311 314 312 311 312 313 312 312 312 313 313 313 313 313 311 311 311 311 314 312 310 313 315 314 315 314 315 313 312 313 314 314 316 316 311 308 308 309 311 310 309 311 309 308 310 310 309 310 308 308 311 311 310 310 311 312 311 313 315 314 313 313 314 317 318 316
313 315 312 310 310 309 310 312 313 314 313 312 310 313 315 310 308 308 309 313 312 308 309 313 312 312 313 312 312 312 312 312 312 313 313 311 311 312 311 311 313 312 310 312 314 315 313 312 316 315 313 314 314 312 312 315 315 313 310 310 313 312 311 312 312 308 308 308 308 309 308 310 313 312 310 310 311 310 309 311 314 313 313 313 313 314 315 315
314 315 312 309 309 309 311 314 313 313 312 312 311 312 313 311 310 309 308 312 314 311 310 312 313 314 313 311 312 313 312 312 313 313 313 312 312 312 311 311 312 311 311 312 314 316 316 316 317 315 314 314 313 309 306 310 315 314 311 313 314 313 313 313 313 311 306 305 305 306 307 312 315 312 308 309 310 308 305 308 313 314 314 314 312 311 311 312
314 313 310 309 309 310 312 314 312 312 312 312 312 312 312 312 312 310 309 311 314 312 312 313 313 312 312 312 313 312 312 312 313 313 314 313 312 312 312 312 311 311 311 312 314 315 315 317 317 313 313 313 311 310 309 310 313 312 312 314 314 314 315 312 312 312 309 307 308 308 309 312 313 311 309 308 307 307 306 307 311 314 314 313 313 312 312 312
312 311 309 309 310 311 313 313 312 312 312 311 312 311 311 312 311 310 310 311 313 311 312 314 312 310 313 314 312 312 313 313 313 313 314 314 311 311 313 313 311 312 312 312 313 313 313 316 317 314 314 314 313 313 313 313 312 312 314 313 312 314 315 310 308 310 310 311 311 310 311 311 311 313 313 311 309 312 312 308 307 310 314 316 315 314 314 315
311 311 311 310 310 311 314 314 312 312 312 312 312 312 312 312 312 312 312 312 315 315 312 312 312 312 315 314 312 313 314 314 315 313 312 313 312 311 312 313 312 311 313 317 315 313 314 317 316 315 315 316 316 316 316 316 314 314 316 314 312 313 313 311 310 310 311 312 311 311 312 310 309 310 312 313 314 314 312 311 308 308 311 315 315 313 313 313
312 311 311 311 311 312 313 313 313 312 311 312 312 312 312 312 311 312 313 311 313 316 314 313 313 313 313 313 312 313 313 314 315 314 312 312 312 310 309 311 313 313 317 320 316 314 318 318 313 313 315 315 315 316 317 319 317 316 318 317 314 312 313 314 314 312 312 312 310 311 313 312 310 309 310 312 314 313 313 313 312 310 311 312 312 311 309 309
310 311 311 311 311 312 312 313 313 313 311 311 312 312 312 311 311 311 311 311 312 315 314 314 313 311 311 312 313 313 313 313 313 314 313 313 312 309 308 309 311 313 316 317 314 315 317 315 313 314 315 313 314 317 319 320 318 317 318 317 315 313 313 314 314 313 314 312 311 313 314 314 312 311 311 313 314 314 315 314 313 313 313 312 310 309 308 308
306 309 309 310 311 311 312 312 313 313 312 311 312 312 311 311 311 311 310 310 312 314 314 313 313 312 311 312 313 313 313 313 312 314 314 313 313 310 309 310 310 310 312 312 313 316 314 312 314 315 314 315 319 321 320 318 317 317 318 317 315 314 313 314 315 315 315 313 313 314 314 314 313 311 311 314 314 314 316 315 312 313 313 312 311 310 309 309
303 305 306 307 309 309 311 312 312 313 313 312 311 312 312 311 311 311 312 312 313 315 315 313 313 313 312 313 313 313 314 313 312 313 313 312 314 313 311 311 310 310 311 311 313 315 313 313 315 314 312 314 318 319 319 317 317 317 318 318 315 313 313 314 314 315 315 314 314 315 315 315 314 311 310 313 315 314 314 312 311 312 314 313 312 312 311 309
302 304 305 307 307 308 310 312 312 312 312 312 311 311 311 311 311 311 313 313 314 315 315 313 313 313 313 313 312 312 314 313 313 314 312 312 314 314 312 312 311 311 312 310 311 311 310 314 316 313 311 313 315 316 316 315 316 316 317 317 314 313 314 314 314 315 315 315 314 314 316 316 314 312 311 313 314 312 312 312 312 312 313 313 312 313 313 310
300 301 302 306 308 308 310 312 312 312 312 311 312 311 310 311 310 310 311 313 315 315 315 314 314 313 313 313 312 312 313 313 314 314 311 312 313 312 313 314 313 312 312 311 311 310 309 313 315 312 311 313 313 314 313 313 313 313 314 314 313 314 313 313 314 314 315 315 315 315 315 314 313 313 312 312 313 311 311 313 312 311 311 312 312 313 312 311
299 299 300 305 308 307 309 312 311 312 312 311 311 311 311 311 311 310 311 313 315 314 314 315 315 312 311 312 313 313 313 314 316 314 312 315 314 312 317 317 312 311 311 311 312 312 310 312 312 311 312 313 312 311 312 313 312 311 313 314 313 314 313 313 314 314 315 315 314 315 314 313 314 313 310 310 311 311 312 313 314 314 313 310 311 312 312 311
Wind_Speed
40 38 38 37 36 34 32 31 31 31 29 27 25 24 24 24 24 25 24 22 22 21 21 20 20 19 17 14 10 9 7 6 8 10 10 14 14 11 8 7 10 11 11 12 11 7 4 4 4 4 5 4 1 1 2 1 1 2 3 3 3 3 3 5 7 4 1 5 9 8 10 10 8 6 3 3 3 2 4 4 1 1 3 0 3 3 7 12
40 38 38 37 37 35 33 31 30 31 31 29 26 24 23 23 24 24 24 23 22 22 21 20 20 19 17 14 9 7 5 3 5 11 17 17 13 12 11 11 12 10 9 12 13 9 7 5 5 4 2 2 0 0 2 0 1 2 2 3 4 3 2 2 6 5 0 5 10 8 8 6 6 9 6 6 7 5 5 6 4 4 6 5 3 3 9 12
39 38 37 38 37 35 33 31 29 29 30 29 27 25 23 23 24 24 24 23 23 22 20 19 19 18 17 15 10 6 6 5 3 11 20 15 14 16 13 13 14 12 10 12 13 11 10 6 7 6 1 2 0 1 2 0 1 1 2 4 3 3 2 1 3 4 0 2 10 9 5 3 3 6 6 5 6 6 8 7 6 8 9 9 6 6 10 13
39 37 37 37 37 36 33 31 30 28 29 29 27 25 24 23 24 24 24 24 24 22 20 19 19 19 18 16 10 7 7 5 4 11 16 11 16 21 17 16 14 12 12 13 12 11 11 6 7 4 1 3 1 1 3 1 1 2 2 2 3 3 3 3 2 3 2 0 6 9 6 4 3 3 5 6 6 6 9 9 9 11 11 11 8 8 13 16
38 36 36 36 37 37 34 33 32 29 29 29 27 26 25 24 24 23 24 24 23 22 21 20 19 18 18 16 12 10 8 4 4 9 11 12 18 20 19 19 17 13 12 13 11 9 9 6 6 3 2 4 2 2 2 1 1 2 1 2 2 1 3 4 2 3 2 1 5 10 8 6 6 3 6 9 8 4 3 6 8 7 5 9 10 11 15 17
38 36 35 36 36 37 36 34 32 30 29 29 28 26 26 25 23 23 23 23 23 23 21 19 19 18 18 16 13 10 7 2 3 6 6 10 15 17 19 20 18 14 13 13 9 8 8 7 7 5 3 3 3 4 1 2 1 2 2 2 1 0 3 4 3 3 2 4 8 8 6 6 7 5 3 8 8 2 4 1 2 1 3 8 12 13 15 17
37 36 36 36 36 36 35 33 31 30 29 28 28 27 27 26 24 22 22 22 23 24 22 18 18 18 17 16 10 6 5 4 3 5 2 3 10 17 20 19 17 15 14 14 11 8 6 8 9 5 4 3 3 2 1 2 1 2 2 2 1 2 3 2 2 3 2 4 5 4 5 6 8 5 2 7 8 3 4 2 2 2 5 9 12 12 15 17
38 37 37 36 34 34 34 32 30 30 28 28 29 29 28 26 24 22 20 22 22 25 24 18 17 19 19 17 9 3 5 8 6 4 4 1 8 15 17 17 16 15 16 16 13 9 6 7 8 4 4 3 3 3 2 4 2 1 2 4 2 2 4 3 3 4 2 1 3 4 5 4 3 2 2 8 8 4 3 3 3 4 6 8 10 12 13 14
38 38 38 37 34 33 33 32 30 29 29 28 28 28 27 26 23 20 20 21 21 25 26 21 17 19 21 17 5 4 7 11 7 5 5 3 6 13 15 13 15 16 15 15 13 11 7 6 5 4 4 2 3 5 3 4 3 1 4 4 4 3 4 3 4 4 3 2 3 7 5 2 2 1 4 6 3 2 1 3 3 3 5 7 8 10 12 13
39 38 38 38 35 33 32 32 31 29 29 29 27 25 24 25 23 20 20 20 21 23 25 24 19 21 24 17 9 7 7 9 8 6 4 5 7 12 14 12 14 17 13 11 11 10 7 4 4 2 1 2 4 3 1 3 1 5 7 7 5 4 3 1 4 4 3 3 2 6 5 2 2 2 5 3 2 0 3 4 3 3 6 7 7 8 10 11
39 37 38 38 37 35 33 31 31 30 30 29 25 22 22 23 22 20 20 20 21 23 24 24 24 28 25 15 11 7 5 6 8 10 7 7 8 11 13 11 13 17 13 8 11 14 8 4 8 4 1 4 5 2 1 1 3 7 9 9 6 3 5 3 5 4 1 4 1 3 5 2 3 3 4 4 2 2 5 5 4 6 6 6 7 7 8 9
38 37 38 38 38 36 34 31 31 31 30 27 23 21 20 21 21 20 18 20 22 23 26 25 28 32 20 9 9 5 4 6 6 10 10 10 11 11 12 10 11 15 14 8 9 15 10 7 11 4 2 5 6 2 2 2 3 5 4 6 4 2 5 3 3 1 2 3 1 2 3 3 7 7 3 4 2 1 5 5 5 7 5 4 5 5 6 8
38 38 38 39 37 36 34 32 32 31 29 26 23 21 21 20 19 18 17 19 22 24 26 25 29 28 13 6 8 6 5 7 5 8 10 11 11 11 11 11 10 12 13 8 8 13 11 9 10 3 1 3 3 2 5 4 1 3 1 2 4 3 2 1 2 1 1 2 0 2 4 5 9 9 4 5 1 1 4 6 5 5 5 4 4 5 6 8
38 38 39 38 36 35 34 33 33 31 27 25 23 21 20 19 18 17 16 19 22 24 25 26 28 22 9 4 5 9 10 8 6 8 10 12 11 10 10 10 11 11 11 7 7 10 10 9 8 4 1 1 3 4 6 4 0 3 3 1 2 4 4 3 3 1 2 2 1 3 5 3 4 4 2 3 1 3 5 5 5 4 4 5 4 5 6 8
39 39 39 37 36 35 34 34 32 29 25 24 24 21 19 17 16 15 15 18 20 22 25 24 24 14 5 4 3 8 12 8 8 9 10 13 12 9 9 10 10 9 8 6 5 8 10 10 7 4 2 2 4 7 5 4 1 1 3 3 2 3 3 3 2 2 0 2 1 4 6 4 2 3 3 2 2 4 6 5 4 4 5 5 5 6 7 7
39 39 39 37 36 35 35 34 30 27 26 26 25 22 19 16 16 15 14 16 18 22 22 18 20 12 3 4 4 7 9 7 10 11 11 14 12 9 10 11 8 6 6 5 8 10 8 7 3 1 3 1 4 6 6 4 3 1 2 3 4 4 3 3 2 2 3 1 4 4 3 3 1 2 2 1 2 4 5 6 5 5 5 5 5 5 6 6
41 40 38 37 37 36 36 34 29 27 27 26 24 21 19 16 15 15 14 16 18 22 18 11 17 11 3 3 5 6 7 7 12 13 14 14 11 11 12 9 6 8 9 9 9 7 3 3 0 1 2 2 2 4 6 6 5 3 1 1 1 3 4 3 3 1 2 2 5 5 4 5 1 1 2 2 1 1 4 5 5 5 5 5 4 4 6 6
42 40 38 38 38 38 36 34 31 29 28 26 24 21 18 17 17 15 16 19 18 16 9 6 12 7 3 6 5 4 6 9 14 14 15 14 11 13 11 7 7 10 10 6 4 1 2 1 0 2 3 3 4 6 7 5 7 9 6 3 2 2 3 2 2 1 1 3 5 6 7 11 7 4 5 5 3 3 6 5 4 5 5 5 4 5 6 6
42 40 39 38 38 38 36 36 33 30 30 26 24 23 20 17 13 10 13 16 13 8 4 6 10 3 3 7 4 5 9 13 14 12 13 13 12 11 8 8 8 7 7 5 3 1 1 2 1 4 6 6 7 9 6 2 6 9 6 3 4 4 3 1 2 1 1 4 7 9 9 10 10 9 8 6 4 4 7 6 6 6 6 6 6 6 6 7
42 40 40 38 39 38 37 37 33 31 32 29 31 25 16 13 9 6 7 6 4 1 1 9 10 1 2 3 6 12 13 11 8 7 13 14 14 12 6 5 5 3 4 5 5 2 0 3 5 6 7 8 9 5 1 3 3 5 4 2 2 4 3 2 2 2 1 4 6 7 8 10 10 11 11 7 4 6 9 8 8 8 7 6 7 7 8 9
42 41 40 39 38 38 38 36 33 32 31 33 34 17 7 11 8 9 10 3 1 2 1 8 8 1 1 3 10 15 10 5 3 5 13 14 15 12 2 2 6 4 2 1 3 3 2 6 7 4 4 5 5 4 5 4 4 4 4 4 2 2 2 2 1 2 1 4 3 1 6 12 12 12 11 9 7 9 10 10 11 10 8 6 6 8 8 7
42 41 40 39 38 38 38 35 31 31 31 34 25 4 2 6 6 16 15 5 3 1 2 5 5 1 2 4 10 9 4 5 5 5 10 11 10 8 3 4 8 5 2 2 4 3 5 8 5 4 5 6 5 3 4 5 4 4 3 4 3 2 2 2 1 2 1 3 1 1 5 10 11 10 10 10 10 10 9 10 10 7 7 7 7 8 7 7
42 41 41 39 38 38 37 34 30 30 32 30 17 4 4 8 17 25 12 5 4 1 1 4 3 4 4 3 8 6 3 6 7 5 8 9 5 3 6 8 6 5 4 6 7 6 6 5 2 6 7 9 5 2 5 5 2 2 2 4 3 2 2 1 3 2 1 1 1 1 5 9 9 8 9 10 8 7 6 8 9 7 9 9 6 5 6 8
42 42 41 39 38 37 35 33 31 30 29 24 16 8 6 16 28 24 5 4 5 0 1 1 0 4 4 3 8 8 4 2 5 8 10 10 5 2 6 7 6 6 5 7 6 5 3 1 2 5 7 9 7 4 6 5 2 1 3 3 2 3 3 1 3 3 1 1 1 3 6 7 5 6 8 5 2 5 5 7 9 8 9 8 6 7 8 9
43 42 41 40 37 36 36 33 28 28 24 17 16 10 9 21 25 15 4 3 4 2 0 1 0 4 4 3 5 6 4 2 1 4 9 9 5 4 4 2 3 7 6 6 5 4 1 2 2 6 5 5 6 6 6 6 4 2 4 3 1 5 6 4 5 4 2 3 1 2 6 5 1 3 6 1 1 5 3 4 9 7 5 5 6 8 8 8
44 42 42 40 37 39 34 23 21 25 19 15 16 11 14 22 18 9 4 2 4 4 2 4 3 6 7 3 3 4 4 4 1 3 7 7 3 4 4 2 1 4 6 6 3 1 2 1 1 4 6 5 5 5 4 4 4 2 3 2 2 5 7 7 7 4 2 2 1 1 5 5 2 2 2 1 4 7 3 5 8 6 3 4 5 5 5 6
44 43 43 40 40 40 25 12 19 24 12 13 18 14 16 20 12 6 3 2 4 5 4 3 1 6 9 3 4 6 5 5 4 3 3 3 2 1 3 6 2 2 4 4 3 1 4 4 2 3 5 5 6 5 5 6 5 2 0 2 5 7 7 8 7 3 1 0 1 0 2 4 5 3 1 2 5 7 6 7 6 4 3 4 4 5 5 5
45 45 43 40 41 34 17 15 25 21 9 11 18 16 17 17 7 2 3 2 3 3 5 3 0 6 5 1 3 2 0 3 6 4 1 2 2 1 3 7 6 5 2 3 5 1 2 5 6 6 5 4 4 1 3 7 4 0 0 1 4 5 5 5 4 2 1 1 4 2 1 4 6 2 1 2 4 7 8 6 4 2 3 4 4 5 6 5
46 46 43 42 40 26 15 19 25 20 15 16 18 18 19 14 4 2 1 3 3 2 2 3 4 5 3 3 3 1 1 2 1 2 1 2 2 2 2 4 6 9 4 1 3 1 1 2 2 4 4 4 2 3 1 2 1 3 5 5 6 5 5 4 2 3 2 3 5 2 1 4 6 3 2 0 2 6 8 5 1 1 2 3 3 4 5 4
47 46 45 43 37 24 16 17 23 24 18 19 21 21 18 9 3 5 3 3 4 2 1 3 4 5 8 9 3 0 2 2 2 3 2 2 3 4 1 2 5 8 4 4 4 2 1 0 1 0 1 2 4 5 3 2 4 8 7 7 8 4 3 2 2 1 2 4 2 2 2 3 4 3 3 3 2 4 5 3 1 1 2 1 1 2 3 3
48 46 46 43 34 27 16 11 23 25 16 20 23 17 11 4 1 6 4 1 4 3 2 3 3 7 15 14 6 2 3 2 2 6 6 3 3 4 4 2 3 4 3 3 4 2 1 1 0 1 1 2 4 6 5 3 4 5 4 6 6 3 1 2 1 1 5 4 1 2 2 3 5 4 2 2 3 3 3 2 1 2 1 1 1 1 2 2
49 47 47 41 34 29 15 10 26 24 17 24 20 8 6 4 2 5 3 2 4 5 5 5 4 8 15 12 6 5 4 3 4 6 7 5 5 6 5 5 6 4 4 5 3 1 2 1 1 2 1 2 3 6 5 2 2 1 5 8 6 3 2 3 2 2 5 2 2 1 1 3 8 7 5 7 7 5 5 4 4 3 2 2 1 2 2 2
48 47 45 38 34 30 17 18 29 23 22 27 14 1 3 5 7 7 4 3 2 2 4 5 3 6 13 11 6 6 3 2 5 4 3 3 5 5 1 2 6 3 3 6 5 3 2 0 0 1 1 2 3 4 4 4 5 5 7 8 6 5 4 5 3 1 3 1 2 1 1 3 7 6 8 12 6 1 3 5 4 4 4 4 3 3 3 3
49 46 42 35 33 30 22 23 27 25 27 22 7 3 5 6 8 6 6 4 0 3 3 6 8 8 10 7 6 8 3 1 6 4 3 4 6 6 4 4 5 0 4 5 5 6 5 3 3 3 2 1 2 2 1 4 4 3 1 2 5 5 4 5 3 2 2 1 2 1 2 4 3 1 3 8 4 2 3 4 3 5 5 4 4 4 4 3
50 45 39 33 29 27 24 23 26 30 26 12 4 7 8 9 8 6 8 6 2 4 3 5 11 11 7 1 1 5 1 1 6 5 6 8 8 9 9 8 6 2 5 6 3 3 3 1 1 0 1 1 2 2 2 4 4 1 1 1 3 2 2 2 1 1 1 1 1 3 3 5 3 5 5 4 3 4 4 2 4 6 4 2 3 4 2 2
46 39 33 29 26 25 27 24 26 30 20 6 5 8 8 9 6 5 7 6 5 9 10 7 7 8 7 2 2 6 2 2 7 6 6 6 6 9 10 8 8 7 7 7 3 2 3 0 2 1 0 1 1 1 1 1 2 2 2 2 2 1 4 4 1 1 1 2 3 3 4 4 3 7 6 1 2 4 3 3 5 4 2 2 3 3 3 3
37 30 23 22 26 28 29 27 28 26 12 4 7 9 9 7 2 3 5 6 8 12 13 8 4 5 8 6 6 9 4 3 6 5 5 5 4 9 9 5 8 11 8 4 2 2 4 3 2 1 2 1 2 1 1 2 0 2 3 4 3 1 1 2 1 1 1 3 2 2 5 5 2 4 2 1 4 7 6 5 4 3 2 3 4 4 4 4
30 24 15 17 28 30 30 31 28 19 5 3 9 11 9 5 1 4 6 7 10 11 10 7 3 3 7 8 7 8 7 5 7 6 6 6 4 7 11 5 4 9 7 1 2 2 2 3 2 1 1 1 1 1 2 1 1 1 1 3 2 2 2 2 2 2 2 3 2 1 3 4 5 5 1 1 6 8 6 5 4 5 5 5 5 5 4 4
25 15 6 16 31 31 33 33 22 10 3 5 11 10 7 4 1 3 8 10 8 8 7 5 2 1 5 7 7 8 7 6 8 7 5 6 4 4 11 6 2 7 6 2 3 3 2 2 2 1 1 0 1 2 5 4 2 1 1 2 0 1 2 2 2 1 2 3 2 2 1 3 6 5 5 9 9 6 5 5 5 7 6 5 4 5 5 5
15 7 4 19 32 32 33 27 13 6 5 7 9 4 2 3 2 0 4 7 4 3 4 4 4 4 4 4 4 6 6 4 8 7 4 6 5 2 7 7 5 6 3 2 2 3 2 1 3 2 1 2 3 2 4 5 5 3 4 5 3 0 0 1 1 1 1 3 2 3 3 3 3 3 7 12 7 2 3 4 4 5 4 4 3 4 5 6
6 4 5 21 35 34 27 15 6 7 6 7 6 1 1 2 4 4 2 2 2 1 1 4 5 5 5 5 4 5 4 3 7 6 3 6 8 4 5 7 7 8 5 3 3 4 2 1 4 4 3 4 2 1 2 2 1 2 4 6 6 4 3 3 3 1 1 1 2 1 4 5 2 2 5 7 2 1 3 3 3 4 4 4 3 3 3 4
3 3 7 26 41 36 20 7 6 7 5 6 4 2 1 1 4 7 3 1 2 1 1 3 3 3 4 6 6 6 7 5 6 7 5 7 9 4 2 3 8 11 9 4 2 1 1 3 4 3 2 2 1 2 1 2 1 1 2 3 4 4 5 5 6 4 3 1 1 2 3 5 1 1 4 3 1 1 1 2 3 4 3 3 3 3 2 1
3 3 11 32 44 33 14 6 6 5 4 3 3 2 2 1 2 5 4 3 2 2 3 3 2 3 3 4 5 8 9 6 5 7 6 5 5 1 2 6 10 12 9 4 3 2 1 3 4 2 1 1 2 0 1 1 0 2 3 3 3 3 3 2 2 3 4 4 3 2 4 5 1 1 3 3 2 2 3 4 5 4 3 3 3 3 3 3
3 4 7 27 40 26 10 7 9 10 7 5 4 2 1 2 2 4 6 6 3 3 5 3 2 2 2 3 6 9 11 6 4 7 4 3 3 1 3 9 12 11 8 5 6 6 4 3 5 4 2 2 1 2 2 1 3 4 2 2 2 2 4 4 2 2 3 5 6 5 7 5 1 0 2 2 2 4 5 5 5 5 5 4 3 3 4 5
4 4 2 14 25 15 5 5 9 12 10 8 7 8 3 0 1 1 4 5 2 2 5 3 2 3 4 4 4 5 9 5 3 6 3 2 2 1 1 8 11 9 4 1 4 7 5 4 6 6 5 5 5 7 6 5 3 2 1 4 7 8 8 5 3 3 4 5 6 7 9 4 2 1 3 2 2 6 5 4 4 5 6 5 3 3 4 4
3 3 3 6 9 6 2 1 3 7 10 9 8 9 8 5 1 1 2 3 1 1 3 2 3 4 4 7 6 5 10 5 2 4 6 4 2 1 0 4 6 5 1 3 6 7 3 3 6 10 10 10 12 11 6 6 6 6 8 9 10 12 10 5 2 4 5 4 5 9 12 8 3 4 5 5 5 6 5 4 5 6 6 6 4 3 3 3
1 2 5 5 3 5 4 2 4 6 10 12 8 7 11 8 3 2 3 2 2 2 2 2 4 7 8 11 8 7 11 7 2 3 6 5 2 2 2 1 2 0 4 2 7 5 3 4 9 13 15 14 11 7 7 9 10 12 13 11 11 12 11 9 8 10 5 4 5 12 14 14 10 9 8 8 7 6 6 6 6 5 5 5 3 3 4 4
1 1 1 1 1 5 7 7 9 7 10 12 6 5 12 11 6 6 4 1 0 3 2 1 5 12 15 14 9 6 8 6 3 4 4 4 3 3 3 2 1 0 2 1 2 2 3 7 9 11 15 13 4 3 6 9 9 9 11 12 13 14 14 15 16 13 8 7 13 16 17 18 13 11 12 9 8 8 7 4 2 2 3 4 4 4 5 5
1 2 1 2 2 4 5 6 9 7 9 12 6 5 12 14 11 7 2 3 2 3 3 5 8 12 14 14 11 7 8 8 8 7 4 4 4 3 3 2 1 0 1 2 1 1 3 4 4 6 12 11 4 4 5 6 6 5 6 10 13 14 15 16 16 14 12 11 15 17 17 17 11 10 12 9 5 4 1 2 2 4 5 5 5 5 6 7
0 1 1 1 2 2 4 7 9 8 8 9 8 7 10 14 14 7 1 4 7 4 4 8 10 10 10 13 14 10 11 15 13 9 8 7 4 3 3 3 3 2 1 3 2 1 3 3 3 4 6 9 4 4 3 3 5 4 4 7 11 12 12 13 14 14 12 12 17 18 16 14 9 8 8 5 3 3 1 3 5 6 5 5 6 7 7 7
1 2 2 2 2 2 4 6 8 8 7 9 10 9 11 14 14 9 3 3 4 4 6 8 8 6 3 9 15 15 15 16 13 12 15 13 10 9 6 5 7 8 5 5 4 3 3 2 2 3 5 7 5 7 5 3 2 2 3 7 12 12 12 13 14 15 13 14 18 16 13 12 7 5 6 4 5 5 5 6 5 6 7 8 8 9 9 9
1 3 3 1 2 2 3 5 7 7 7 9 10 9 10 10 8 9 7 3 0 1 3 6 9 8 4 9 15 13 10 7 4 8 11 8 7 8 5 5 12 13 9 8 5 3 5 4 3 4 6 5 3 6 7 6 3 2 5 12 16 16 16 14 14 15 15 15 14 12 12 10 2 7 6 5 6 7 7 7 7 7 8 9 9 9 9 10
Wind_Direction
188 189 188 189 188 187 187 188 194 198 200 203 203 201 200 199 198 200 202 204 208 214 216 216 218 220 226 224 221 234 259 280 285 296 278 252 238 205 207 259 273 292 299 267 257 258 229 213 197 171 166 159 353 225 152 62 130 215 206 195 187 169 185 175 170 176 109 144 159 175 191 184 158 165 177 164 191 142 155 194 170 187 238 103 86 113 149 151
187 188 189 191 190 188 186 187 191 196 200 202 203 202 199 198 197 197 198 201 204 210 213 213 215 218 223 215 203 215 216 229 286 282 256 244 242 225 221 246 257 272 289 260 244 231 217 216 178 159 166 184 304 239 186 205 217 210 184 201 198 160 135 163 161 155 111 145 151 170 196 201 165 158 170 187 176 168 190 197 200 208 205 188 151 147 162 161
187 188 189 191 192 191 187 186 187 190 195 198 200 199 196 196 196 198 198 199 201 203 206 207 210 213 213 201 186 197 186 185 264 257 248 244 243 244 239 246 253 251 258 254 242 226 231 231 173 165 152 205 89 215 209 171 223 206 200 207 175 141 108 103 160 146 42 118 146 160 181 220 163 148 172 189 167 182 208 197 197 210 206 190 162 153 168 170
188 187 188 190 193 193 189 187 185 185 189 193 196 195 194 194 195 197 196 198 200 198 200 200 202 203 201 194 185 195 190 196 234 243 254 240 224 241 246 242 245 242 238 240 243 234 236 225 172 171 187 198 41 247 214 105 216 171 204 218 125 138 125 140 178 122 73 120 156 145 150 186 152 151 182 174 166 199 222 212 208 211 201 181 154 156 170 174
188 187 187 189 190 192 190 188 187 186 186 189 192 192 193 193 194 195 194 197 196 194 197 196 196 195 194 191 185 194 200 215 221 225 248 236 225 238 239 235 237 238 231 226 238 234 222 203 168 163 192 199 150 193 201 65 326 160 199 353 90 172 118 131 148 116 105 116 149 144 155 160 132 170 193 188 196 198 215 219 222 222 188 164 155 158 168 179
188 187 187 187 187 187 188 187 186 185 185 187 189 189 191 192 191 190 192 193 190 189 191 193 194 188 186 183 179 197 213 219 173 170 214 240 236 228 218 221 226 227 226 219 218 205 197 191 187 188 186 204 187 190 161 81 308 196 173 28 82 32 93 124 126 132 173 155 156 157 150 132 150 188 189 210 221 94 67 22 285 297 85 130 143 156 170 183
188 187 186 185 183 182 183 183 182 182 183 185 187 188 190 190 189 187 188 187 186 186 185 190 190 186 186 174 166 210 241 255 206 151 130 244 229 215 205 205 210 214 213 202 188 184 191 191 194 189 171 197 200 199 127 123 279 262 158 124 116 25 77 108 114 139 207 169 150 136 136 153 184 182 116 228 228 114 90 49 31 83 111 130 145 165 179 186
187 186 184 183 182 180 179 180 179 181 181 182 185 188 189 188 186 184 183 182 185 187 188 190 183 186 183 160 150 201 233 244 221 145 81 106 207 202 194 192 199 203 202 197 185 177 182 187 187 178 183 211 182 172 171 154 206 267 143 139 142 49 78 91 115 143 175 145 116 142 157 164 178 132 160 229 222 155 125 95 82 105 130 151 164 176 183 189
186 185 183 183 184 181 180 180 180 182 181 182 185 185 186 187 183 179 179 177 180 186 189 189 180 180 170 151 162 210 220 232 204 136 96 120 186 188 186 189 193 194 197 202 195 179 177 187 189 190 191 202 170 168 190 198 202 129 123 130 126 88 84 106 119 132 150 125 160 170 155 94 81 25 240 222 191 124 125 124 111 126 157 176 179 183 185 191
184 183 184 185 185 183 181 179 178 180 180 181 181 178 181 186 183 177 176 173 175 178 183 187 179 169 161 159 190 207 224 228 198 184 147 141 171 178 184 190 188 190 191 199 203 188 188 196 175 178 179 139 166 164 185 222 167 102 116 103 94 100 87 91 118 121 138 121 214 180 137 88 113 250 242 158 72 18 188 170 158 178 185 188 187 190 192 197
183 183 183 183 183 182 180 176 176 179 179 177 175 174 177 182 181 176 174 172 171 171 172 177 173 168 169 181 198 193 202 206 193 195 179 164 176 179 189 194 190 193 188 191 208 201 211 208 155 137 292 153 149 123 38 210 108 120 129 97 67 90 99 76 112 122 165 129 236 186 127 92 130 226 229 106 48 227 199 188 182 204 201 191 192 194 198 204
182 181 181 180 179 180 180 177 177 178 175 172 173 175 176 177 177 174 172 171 170 168 166 171 174 174 179 207 214 197 168 181 187 185 180 177 178 180 188 195 196 199 195 195 215 209 217 202 162 135 313 162 144 139 141 127 113 136 147 106 89 99 103 67 98 119 284 139 198 196 159 200 196 217 181 101 28 144 196 205 191 209 207 194 198 202 208 206
180 178 178 176 177 179 179 179 180 176 169 168 172 173 173 172 173 174 170 169 169 166 168 173 177 178 189 222 217 222 185 167 171 176 179 175 176 182 186 192 196 199 201 210 222 210 210 196 171 125 349 154 130 158 129 100 118 153 183 116 130 169 145 43 15 304 245 127 258 236 226 219 203 215 147 106 342 132 194 207 200 212 205 203 202 210 218 208
178 178 176 176 178 178 178 179 178 172 164 167 170 168 170 169 168 169 167 167 167 166 171 175 176 181 207 228 210 223 200 168 163 176 181 178 172 174 180 186 191 194 199 218 228 207 198 178 152 110 36 43 112 153 126 101 301 140 151 186 150 192 171 80 17 300 192 144 290 227 236 242 180 196 123 97 226 207 221 205 197 212 210 216 206 217 227 215
177 177 175 176 177 176 175 175 173 165 159 164 167 165 165 163 162 164 164 165 165 170 173 173 175 178 225 235 211 208 195 178 182 186 188 185 171 161 174 178 180 191 194 210 205 179 172 158 137 115 73 358 146 150 128 111 85 106 168 179 176 215 169 98 52 335 267 140 208 217 233 250 174 134 87 55 186 203 233 220 202 215 218 225 214 221 231 225
176 175 175 175 174 173 171 170 167 159 155 161 165 164 159 154 157 158 156 159 163 169 167 168 181 187 234 207 172 184 186 184 192 194 192 189 183 167 158 154 150 156 154 149 143 136 137 130 117 107 100 132 178 151 135 144 158 191 232 175 167 203 179 144 109 2 341 136 201 232 258 257 158 110 103 82 168 180 229 233 223 225 223 229 225 224 230 232
176 176 175 174 173 171 169 168 166 159 159 164 165 162 155 150 153 150 151 157 156 160 160 166 183 196 284 164 159 182 179 177 183 186 187 188 190 170 146 130 117 122 119 119 127 119 85 75 120 228 111 141 196 160 161 180 177 168 258 173 168 206 184 177 141 73 324 221 207 216 252 252 225 102 164 183 202 200 243 243 234 230 227 226 226 232 234 234
175 175 175 174 172 170 169 168 166 163 163 163 163 159 148 143 148 147 147 145 136 142 157 176 175 192 244 177 175 178 157 162 168 172 180 181 179 167 146 124 124 127 120 114 122 85 33 35 263 164 146 167 181 189 188 183 174 173 188 187 178 217 220 212 144 117 240 212 212 201 233 250 245 237 217 192 194 261 264 259 258 249 242 235 230 237 236 234
174 174 174 173 172 170 168 168 166 164 163 161 156 146 132 128 134 139 145 145 140 143 168 180 175 197 197 172 165 133 137 149 155 160 168 169 167 155 128 120 125 127 138 151 160 171 116 118 177 180 177 181 187 206 211 165 171 177 180 169 151 176 210 186 93 29 239 202 216 214 227 249 248 247 245 215 179 242 266 267 263 251 242 237 231 233 232 234
172 172 172 172 172 170 167 168 167 165 165 161 150 140 132 137 135 143 163 175 182 153 151 171 175 258 51 146 138 128 127 134 139 156 163 165 157 136 98 107 113 103 152 162 155 151 178 172 190 199 186 182 188 200 111 80 143 152 141 126 141 176 177 127 100 38 299 221 219 223 245 260 259 257 260 255 226 244 257 255 254 247 238 230 226 230 228 233
171 170 170 171 171 169 167 167 166 168 168 161 155 150 155 162 156 157 160 170 221 357 332 164 156 123 54 126 145 137 126 117 98 150 162 166 161 148 126 158 149 154 161 112 117 114 204 207 200 189 162 155 152 125 93 96 119 141 162 164 177 214 163 93 100 75 40 241 217 165 264 261 257 256 258 258 253 251 247 243 247 243 236 229 227 234 232 236
170 169 170 170 170 169 167 166 166 170 168 164 168 198 211 175 138 144 146 132 157 342 0 144 127 106 82 135 166 158 121 124 127 156 166 166 177 176 162 168 167 162 124 119 132 135 203 215 185 125 114 97 85 101 112 97 115 142 164 171 182 191 141 106 116 96 67 252 219 80 276 266 256 251 249 242 243 246 240 242 251 244 236 232 225 235 239 243
170 169 169 169 169 169 167 166 166 168 167 169 185 233 194 168 140 142 142 99 135 349 74 160 159 149 130 159 194 190 136 143 152 178 182 170 184 186 152 163 164 136 152 179 171 169 195 216 126 122 142 131 113 129 123 105 120 151 154 177 182 153 162 187 158 130 46 309 310 313 283 276 259 247 240 230 238 259 260 259 261 250 242 239 236 247 249 246
169 168 169 168 167 167 165 165 166 171 173 179 197 205 163 154 149 149 133 75 129 170 149 184 346 165 158 162 194 190 148 133 160 169 183 177 159 150 160 155 141 142 180 188 175 177 175 1 86 140 160 156 148 158 160 162 174 226 214 189 158 165 184 29 116 139 150 164 334 311 279 272 251 238 238 211 226 268 265 265 257 243 236 240 254 258 247 242
169 168 168 167 165 163 161 162 166 174 177 188 207 204 157 155 157 156 119 94 142 121 286 247 101 207 196 146 184 186 133 116 161 151 172 181 156 141 153 128 158 174 169 154 161 187 137 20 163 148 151 161 154 167 190 191 175 214 235 213 183 175 156 102 126 153 202 199 55 340 265 261 157 227 240 186 322 257 220 246 256 242 220 228 244 245 237 234
168 167 167 165 162 159 158 160 170 172 174 200 205 183 162 162 162 163 125 82 175 151 163 172 157 194 184 144 144 155 151 162 22 68 149 178 174 139 141 115 304 172 149 138 156 203 104 81 198 151 146 150 161 185 195 184 176 193 216 181 141 146 138 136 154 172 233 220 53 344 253 259 297 254 234 32 306 274 228 224 249 248 222 230 242 246 242 236
168 167 166 164 161 160 158 153 164 166 169 206 196 172 167 165 157 172 129 71 196 162 140 160 221 183 170 154 159 161 171 150 106 82 117 152 174 113 156 163 152 131 141 146 172 183 119 133 166 140 137 149 170 192 183 176 178 176 213 152 142 142 145 151 158 174 316 46 134 138 278 274 276 266 58 3 293 276 262 233 230 233 237 247 252 260 263 254
167 167 165 163 164 164 158 145 157 169 181 186 181 168 162 159 150 171 150 156 183 131 139 164 105 153 147 97 162 161 290 122 130 155 52 66 142 348 176 173 154 129 128 187 189 185 108 163 178 155 150 174 182 183 163 172 171 137 238 133 127 122 122 135 142 133 58 301 217 165 68 267 264 245 110 355 280 264 268 246 205 190 237 262 271 275 276 274
167 166 164 162 163 164 162 155 160 177 185 171 169 165 156 154 144 112 159 195 153 92 125 139 136 144 134 134 131 38 21 55 87 154 90 88 98 25 158 163 127 117 78 335 168 69 32 199 201 165 171 175 129 34 1 194 130 148 156 111 91 83 78 93 118 118 111 253 229 141 61 265 266 246 173 163 257 245 253 250 199 176 233 255 277 286 286 286
166 165 164 163 162 163 159 160 170 178 180 173 166 160 153 150 151 147 182 206 147 108 75 143 171 155 151 155 140 32 139 54 36 116 101 111 68 34 73 98 104 117 77 34 70 42 329 302 321 305 186 136 108 74 14 344 119 145 155 111 93 80 63 73 58 82 196 241 233 66 7 279 273 258 202 206 244 242 245 248 162 180 217 243 275 299 302 297
165 164 165 164 165 166 154 159 180 178 176 171 160 154 152 121 127 169 175 182 134 129 148 169 171 153 164 169 156 146 127 62 155 151 145 150 94 99 145 151 106 109 120 97 73 32 50 82 195 54 42 133 121 85 47 41 132 145 159 130 113 93 99 123 79 159 227 232 118 38 334 262 243 240 206 249 283 261 241 234 197 195 300 343 335 339 325 303
165 165 166 167 169 171 166 170 177 173 167 163 153 155 163 120 187 192 162 153 156 168 178 173 187 176 170 166 136 139 135 117 179 168 151 154 154 157 168 177 160 145 170 166 133 93 90 78 21 35 326 223 153 106 79 59 237 202 158 153 149 140 157 196 193 199 235 236 78 17 298 239 245 253 266 274 268 237 224 232 245 255 283 307 347 5 336 316
165 164 166 169 170 172 175 169 170 168 160 157 148 152 162 154 197 192 157 180 176 145 141 129 147 166 159 155 148 151 126 128 177 173 139 147 162 172 270 208 180 172 166 159 146 148 146 199 243 131 182 237 197 150 140 177 205 188 165 165 169 156 166 199 187 226 258 243 70 291 268 248 261 263 250 255 264 212 215 237 249 260 270 285 321 328 308 302
165 164 164 168 171 174 175 169 170 166 155 153 151 146 158 189 195 166 161 193 95 86 109 115 123 142 158 160 162 162 129 106 174 159 141 159 167 182 208 210 206 142 112 146 163 170 178 198 187 162 148 171 198 230 155 138 158 187 171 156 178 175 184 195 181 198 212 104 80 185 221 228 238 19 236 251 289 329 248 256 268 265 263 276 297 291 280 273
164 164 164 166 172 175 172 169 171 164 154 150 170 162 178 200 189 173 175 170 128 122 100 112 131 146 168 112 124 187 189 167 179 163 163 176 180 185 187 189 200 170 138 160 177 168 181 230 72 57 287 173 174 286 345 100 123 207 353 69 201 192 137 131 111 132 124 71 157 185 244 243 256 306 280 247 279 266 242 257 269 261 252 243 264 258 231 205
160 162 163 167 174 174 169 169 168 162 156 153 173 178 204 205 182 179 168 135 136 140 119 117 135 151 169 144 185 216 276 133 172 177 181 188 196 193 189 185 187 193 176 161 158 160 168 137 15 11 177 69 331 290 321 85 145 156 155 177 209 59 103 114 100 61 67 256 200 168 252 264 282 284 274 195 270 259 230 234 247 248 239 215 231 213 177 173
155 157 161 168 176 171 168 169 164 160 163 176 185 195 209 211 151 127 138 111 130 139 131 142 167 169 170 167 187 195 183 141 173 195 182 172 205 197 192 197 186 192 196 157 148 211 164 122 21 352 117 72 314 249 52 10 133 149 169 169 149 77 90 117 149 101 116 243 226 163 243 262 256 260 297 62 250 246 227 226 241 236 207 218 212 177 164 162
150 151 154 171 173 168 167 166 157 153 156 191 207 215 208 208 83 119 137 124 136 151 154 159 167 183 177 173 174 177 178 171 175 189 175 174 215 187 178 194 189 191 204 143 134 207 152 122 65 351 134 63 328 214 146 84 8 324 177 150 138 193 199 173 174 166 187 229 251 214 242 262 228 223 297 240 235 243 228 202 214 216 202 207 195 162 154 152
145 144 143 170 169 166 164 158 146 141 152 190 210 221 198 172 134 148 147 134 138 161 164 156 135 170 185 172 151 157 183 184 165 176 188 186 211 183 175 183 170 185 194 160 158 161 127 149 134 98 306 328 312 231 190 166 115 40 142 149 294 274 209 184 158 165 207 214 243 242 232 238 218 207 223 230 234 240 221 193 201 208 197 197 180 155 161 169
145 140 141 166 165 162 157 146 132 149 185 206 211 215 171 148 98 263 159 131 131 174 163 158 162 155 156 156 137 156 183 180 166 185 214 182 186 219 192 182 159 164 150 71 142 151 124 184 148 121 320 212 192 219 209 181 154 153 166 170 177 116 40 234 138 70 221 204 209 243 252 239 211 181 211 228 235 219 213 220 213 206 198 194 179 167 172 173
147 127 151 165 160 154 147 137 143 176 194 224 219 95 56 149 128 169 223 80 81 318 116 139 153 148 139 150 160 159 159 162 177 194 224 195 200 224 207 186 157 145 128 106 160 164 158 165 142 139 177 198 193 353 301 264 167 168 184 181 176 152 136 185 197 148 36 231 193 238 271 258 198 168 214 228 243 194 229 247 229 219 221 208 196 192 184 171
154 122 158 164 157 149 147 151 172 183 208 217 202 73 88 140 135 160 187 45 90 63 63 118 134 136 143 158 159 153 155 165 183 193 210 214 214 219 215 172 145 151 155 147 156 164 101 104 113 130 181 213 322 5 270 286 322 307 260 201 176 169 173 194 206 180 133 134 93 83 279 274 128 141 233 242 279 288 260 266 254 244 234 221 207 194 199 215
152 119 148 161 158 150 149 165 163 192 225 175 133 50 57 35 113 147 169 191 161 138 146 144 142 150 159 160 151 159 169 170 187 200 206 208 211 214 161 149 142 154 163 146 147 168 112 111 117 104 74 17 332 313 125 5 298 241 242 205 178 195 187 175 191 155 147 170 163 158 252 265 102 111 246 250 266 272 251 239 243 258 267 244 216 184 187 215
121 104 137 166 166 159 156 172 176 195 198 144 147 192 42 28 147 155 179 191 183 158 152 141 162 163 140 146 150 166 178 179 205 213 209 179 186 56 140 161 155 162 178 179 174 177 177 153 129 116 113 128 192 208 199 209 213 224 224 154 166 145 97 88 101 133 195 199 177 197 246 249 129 97 252 239 247 250 241 222 218 240 261 252 222 187 190 201
117 101 80 174 178 177 178 184 188 191 175 148 178 200 188 123 200 208 195 178 145 156 153 141 159 121 110 133 119 153 184 190 191 198 201 180 180 42 140 181 177 179 194 69 147 165 180 171 148 157 173 173 189 204 203 190 180 200 174 158 185 180 159 154 143 155 214 200 166 206 240 234 92 283 249 220 226 241 232 203 204 229 250 259 243 205 197 200
134 129 128 165 187 211 230 187 188 187 170 161 184 199 190 185 176 322 218 177 157 158 125 106 140 113 120 153 139 161 195 200 57 170 187 178 162 39 333 204 195 192 43 73 143 152 147 176 180 189 198 201 207 208 182 133 142 187 195 183 188 191 181 159 125 184 202 164 170 222 240 243 206 187 217 216 209 228 228 202 209 219 230 243 239 213 201 201
111 138 158 151 168 206 213 209 193 188 176 171 176 183 187 190 157 145 215 212 191 166 94 59 163 165 165 165 159 175 191 185 114 169 178 166 146 44 35 179 197 301 18 118 167 143 113 197 199 200 212 218 218 207 160 151 173 195 195 182 179 185 181 177 202 211 176 127 220 232 236 246 232 185 197 215 203 217 232 218 213 205 208 222 211 193 201 198
26 65 152 104 129 190 201 197 189 184 171 170 167 165 182 192 180 174 191 196 222 200 173 170 193 185 177 167 160 162 171 177 194 189 161 140 146 118 68 57 140 323 15 110 174 118 156 208 203 200 218 223 190 119 169 178 188 198 193 182 177 177 178 190 211 212 171 177 233 233 225 237 233 191 198 211 198 211 224 207 191 173 197 214 197 195 203 192
43 63 29 359 23 175 178 158 157 162 167 173 180 176 183 193 193 186 156 132 193 240 208 195 198 191 179 172 169 161 161 180 202 199 164 135 146 141 116 116 133 151 98 123 146 172 183 210 191 182 220 228 159 116 191 186 174 192 192 180 176 177 184 196 210 211 197 209 238 241 235 243 236 193 200 210 192 206 222 95 156 203 201 201 202 211 212 199
119 68 109 79 56 114 137 135 148 165 174 180 192 190 188 195 195 189 120 172 187 194 200 200 191 181 177 179 185 188 185 191 197 186 152 134 143 168 171 172 152 120 155 155 150 215 210 203 125 131 219 233 184 150 196 179 171 181 163 163 170 177 193 210 218 215 211 225 241 245 249 258 249 191 187 189 128 111 141 187 207 218 208 196 206 219 219 212
88 354 0 131 110 114 144 147 158 173 180 189 196 189 190 199 194 184 189 223 199 181 197 196 169 149 162 190 198 203 199 199 197 175 162 164 177 184 184 181 160 151 169 181 162 167 193 193 94 121 211 230 194 169 157 106 100 118 136 170 178 182 195 209 215 211 206 218 234 241 249 256 249 157 153 174 157 162 197 210 216 226 215 204 208 217 220 219
107 358 344 83 112 137 160 150 161 178 189 198 197 184 185 192 180 177 192 211 199 200 211 178 152 144 168 200 209 210 192 186 185 164 165 168 170 171 168 166 164 161 164 175 174 167 173 173 148 162 203 231 197 156 141 114 102 211 207 191 186 193 203 205 212 216 210 212 220 225 231 237 175 118 155 190 189 194 205 207 213 220 213 206 213 219 222 226